Stations météo

Publicité
Lulea/Kallax, Suède (2186): Température de l'air & dewpoint: 18.01.2021 07:00:00 - 24.01.2021 07:00:00 (CET)Lulea/Kallax, Suède (2186): Vitesse du vent & gusts: 18.01.2021 07:00:00 - 24.01.2021 07:00:00 (CET)Lulea/Kallax, Suède (2186): Direction du vent: 18.01.2021 07:00:00 - 24.01.2021 07:00:00 (CET)Lulea/Kallax, Suède (2186): reduced air pressure: 18.01.2021 07:00:00 - 24.01.2021 07:00:00 (CET)Lulea/Kallax, Suède (2186): visibility: 18.01.2021 07:00:00 - 24.01.2021 07:00:00 (CET)Lulea/Kallax, Suède (2186): Quantités de précipitations: 18.01.2021 07:00:00 - 24.01.2021 07:00:00 (CET)
Date & Time tt [°C] td [°C] ff [km/h] ff [knt] fx [km/h] fx [knt] dd ppp [hPa] vv [km] rr [mm]
24.01.2021 07:00:00 -12,9 -15,2 15 8 22 12 N 997,6 10 0,0
24.01.2021 06:00:00 -12,8 -15,1 11 6 18 10 NNW 997,4 10 0,0
24.01.2021 05:00:00 -12,8 -14,9 13 7 22 12 NNW 997,4 10 0,0
24.01.2021 04:00:00 -12,7 -14,8 13 7 25 14 NNW 997,1 10 0,0
24.01.2021 03:00:00 -12,8 -14,9 16 9 25 14 NNW 996,4 8 0,0
24.01.2021 02:00:00 -12,7 -14,7 13 7 18 10 NNW 996,4 10 0,0
24.01.2021 01:00:00 -12,5 -14,4 11 6 22 12 NNW 996,1 10 0,0
24.01.2021 00:00:00 -11,8 -14,0 16 9 25 14 N 995,4 10 0,0
23.01.2021 23:00:00 -11,6 -13,6 18 10 25 14 NNW 994,6 10 0,0
23.01.2021 22:00:00 -11,5 -13,4 18 10 29 16 N 994,3 10 0,0
23.01.2021 21:00:00 -11,6 -13,3 18 10 25 14 N 993,5 10 0,0
23.01.2021 20:00:00 -11,7 -13,3 18 10 29 16 N 992,9 7 0,0
23.01.2021 19:00:00 -11,7 -13,1 16 9 25 14 N 992,2 4,0 0,2
23.01.2021 18:00:00 -11,8 -13,2 13 7 25 14 N 991,9 0,9 0,1
23.01.2021 17:00:00 -11,7 -13,3 16 9 29 16 N 991,2 8 0,3
23.01.2021 16:00:00 -11,9 -13,3 15 8 29 16 NNE 990,9 2,5 0,7
23.01.2021 15:00:00 -12,1 -13,5 15 8 25 14 NNE 991,1 1,3 0,8
23.01.2021 14:00:00 -12,0 -13,4 15 8 29 16 NNE 991,1 1,3 1,0
23.01.2021 13:00:00 -11,8 -13,2 15 8 36 19 NE 991,0 2,0 2,0
23.01.2021 12:00:00 -11,9 -13,3 16 9 32 18 NE 991,1 1,5 0,9
23.01.2021 11:00:00 -11,9 -13,3 15 8 40 21 ENE 991,3 1,0 1,0
23.01.2021 10:00:00 -11,9 -13,3 18 10 40 21 ENE 991,5 1,2 0,9
23.01.2021 09:00:00 -11,8 -13,2 21 11 36 19 ENE 991,4 1,5 0,6
23.01.2021 08:00:00 -11,8 -13,2 18 10 47 25 ENE 991,8 0,8 1,0
23.01.2021 07:00:00 -11,7 -13,0 21 11 47 25 ENE 991,8 1,9 0,8
23.01.2021 06:00:00 -11,6 -12,9 16 9 36 19 ENE 992,1 1,5 1,0
23.01.2021 05:00:00 -11,5 -12,8 16 9 36 19 ENE 992,2 1,8 0,8
23.01.2021 04:00:00 -11,5 -12,8 21 11 40 21 ENE 992,5 2,0 1,0
23.01.2021 03:00:00 -11,3 -12,6 18 10 40 21 ENE 992,8 1,5 0,8
23.01.2021 02:00:00 -11,6 -12,9 21 11 40 21 E 993,1 0,8 1,0
23.01.2021 01:00:00 -11,4 -12,7 21 11 36 19 E 993,7 0,4 3,0
23.01.2021 00:00:00 -11,6 -12,9 21 11 47 25 E 994,0 0,6 2,0
22.01.2021 23:00:00 -11,9 -13,2 28 15 58 31 ENE 993,3 0,6 0,9
22.01.2021 22:00:00 -12,1 -13,5 24 13 47 25 ENE 994,5 1,2 1,0
22.01.2021 21:00:00 -12,1 -13,5 24 13 47 25 ENE 995,5 2,3 0,5
22.01.2021 20:00:00 -11,7 -13,0 18 10 47 25 ENE 996,5 2,0 0,7
22.01.2021 19:00:00 -11,3 -12,6 22 12 47 25 E 996,8 2,1 0,9
22.01.2021 18:00:00 -10,9 -12,1 18 10 32 18 ENE 997,0 2,0 1,0
22.01.2021 17:00:00 -10,6 -11,8 21 11 40 21 ENE 997,1 1,0 2,0
22.01.2021 16:00:00 -10,4 -11,6 18 10 40 21 ENE 997,0 1,0 2,0
22.01.2021 15:00:00 -9,5 -10,6 16 9 40 21 ENE 996,9 0,8 2,0
22.01.2021 14:00:00 -9,0 -10,1 18 10 32 18 E 996,9 1,2 1,0
22.01.2021 13:00:00 -8,7 -9,8 16 9 32 18 E 996,9 1,6 1,0
22.01.2021 12:00:00 -8,3 -9,4 16 9 32 18 E 996,9 2,5 0,4
22.01.2021 11:00:00 -8,1 -9,2 21 11 36 19 E 997,0 2,5 0,4
22.01.2021 10:00:00 -8,1 -9,2 18 10 32 18 E 996,7 4,5 0,4
22.01.2021 09:00:00 -8,4 -9,5 21 11 36 19 E 996,2 2,5 0,9
22.01.2021 08:00:00 -8,4 -9,3 21 11 32 18 E 995,7 2,0 2,0
22.01.2021 07:00:00 -8,4 -9,3 22 12 40 21 E 995,5 2,0 1,0
22.01.2021 06:00:00 -8,5 -9,6 22 12 40 21 ESE 995,1 1,1 1,0
22.01.2021 05:00:00 -8,4 -9,5 21 11 36 19 E 995,3 1,5 0,8
22.01.2021 04:00:00 -8,3 -9,2 24 13 50 27 ESE 995,7 1,2 1,0
22.01.2021 03:00:00 -8,4 -9,3 26 14 47 25 ESE 995,8 0,4 3,0
22.01.2021 02:00:00 -8,2 -9,1 28 15 47 25 ESE 995,9 0,4 4,0
22.01.2021 01:00:00 -8,9 -9,8 28 15 50 27 E 996,7 0,2 5,0
22.01.2021 00:00:00 -9,2 -10,3 31 17 61 33 E 997,2 0,3 4,0
21.01.2021 23:00:00 -9,5 -10,6 31 17 58 31 E 998,0 0,4 3,0
21.01.2021 22:00:00 -9,7 -10,9 34 18 54 29 E 998,9 0,5 2,0
21.01.2021 21:00:00 -10,0 -11,2 35 19 58 31 E 1000,5 0,4 2,0
21.01.2021 20:00:00 -10,0 -11,2 31 17 54 29 E 1001,5 0,4 0,9
21.01.2021 19:00:00 -9,8 -11,0 31 17 50 27 E 1002,5 1,1 0,5
21.01.2021 18:00:00 -9,6 -10,8 31 17 50 27 E 1003,5 1,2 0,4
21.01.2021 17:00:00 -9,6 -10,9 31 17 54 29 E 1003,8 1,1 0,2
21.01.2021 16:00:00 -9,7 -11,0 28 15 50 27 E 1004,8 1,7 0,4
21.01.2021 15:00:00 -9,6 -10,9 28 15 50 27 E 1005,7 3,0 0,2
21.01.2021 14:00:00 -9,4 -10,7 24 13 43 23 E 1006,2 1,7 0,2
21.01.2021 13:00:00 -9,2 -10,5 24 13 43 23 E 1006,7 3,5 0,1
21.01.2021 12:00:00 -9,0 -10,3 26 14 43 23 E 1007,3 3,0 0,0
21.01.2021 11:00:00 -8,8 -10,3 22 12 43 23 E 1007,7 6 0,1
21.01.2021 10:00:00 -8,8 -10,1 18 10 32 18 E 1008,3 6 0,2
21.01.2021 09:00:00 -8,8 -10,1 18 10 32 18 E 1008,5 6 0,1
21.01.2021 08:00:00 -8,4 -9,7 18 10 40 21 E 1008,5 7 0,2
21.01.2021 07:00:00 -8,5 -9,6 16 9 32 18 E 1009,0 6 0,2
21.01.2021 06:00:00 -8,9 -10,0 13 7 25 14 ENE 1009,1 6 0,2
21.01.2021 05:00:00 -9,0 -10,1 15 8 25 14 ENE 1009,2 5 0,2
21.01.2021 04:00:00 -9,3 -10,4 15 8 29 16 NE 1009,4 3,2 0,2
21.01.2021 03:00:00 -9,7 -10,9 15 8 29 16 ENE 1009,5 5 0,1
21.01.2021 02:00:00 -10,1 -11,3 15 8 25 14 NE 1009,8 5 0,1
21.01.2021 01:00:00 -10,0 -11,2 13 7 25 14 NE 1010,2 6 0,1
21.01.2021 00:00:00 -9,9 -11,1 15 8 25 14 NE 1010,5 4,6 0,4
20.01.2021 23:00:00 -9,6 -10,7 13 7 25 14 ENE 1010,8 4,2 0,4
20.01.2021 22:00:00 -9,2 -10,3 13 7 25 14 ENE 1010,7 3,8 0,2
20.01.2021 21:00:00 -8,5 -9,4 11 6 22 12 NE 1010,5 5 0,1
20.01.2021 20:00:00 -8,6 -9,5 13 7 22 12 ENE 1010,4 4,3 0,2
20.01.2021 19:00:00 -8,4 -9,3 9 5 18 10 ENE 1010,7 7 0,0
20.01.2021 18:00:00 -8,5 -9,4 15 8 25 14 ENE 1010,4 10 0,0
20.01.2021 17:00:00 -9,2 -10,3 15 8 25 14 NE 1010,3 10 0,0
20.01.2021 16:00:00 -9,5 -10,6 15 8 29 16 NE 1010,4 6 0,3
20.01.2021 15:00:00 -9,1 -10,0 16 9 29 16 NE 1010,4 2,0 0,5
20.01.2021 14:00:00 -9,4 -10,3 13 7 25 14 NE 1010,5 1,8 0,8
20.01.2021 13:00:00 -9,9 -10,8 11 6 25 14 NNE 1010,8 2,0 0,2
20.01.2021 12:00:00 -10,7 -11,7 11 6 22 12 NNE 1011,2 2,5 0,3
20.01.2021 11:00:00 -11,2 -12,4 11 6 18 10 NNE 1011,4 2,5 0,5
20.01.2021 10:00:00 -11,8 -13,0 11 6 22 12 NNE 1011,6 4,0 0,5
20.01.2021 09:00:00 -11,7 -12,9 15 8 25 14 NNE 1011,5 5 0,4
20.01.2021 08:00:00 -11,4 -12,6 13 7 22 12 NNE 1011,2 5 0,5
20.01.2021 07:00:00 -11,0 -12,0 11 6 18 10 NNE 1011,5 6 0,4
20.01.2021 06:00:00 -10,7 -11,7 8 4 18 10 NNE 1011,6 8 0,2
20.01.2021 05:00:00 -10,6 -11,6 9 5 18 10 NE 1011,6 9 0,1
20.01.2021 04:00:00 -10,4 -11,4 9 5 18 10 NNE 1011,6 8 0,5
20.01.2021 03:00:00 -10,5 -11,5 9 5 18 10 NNE 1011,5 10 0,1
20.01.2021 02:00:00 -10,7 -11,7 9 5 18 10 NNE 1011,7 10 0,0
20.01.2021 01:00:00 -10,6 -11,6 8 4 14 8 NNE 1011,8 10 0,0
20.01.2021 00:00:00 -10,8 -11,8 8 4 14 8 NNE 1012,0 10 0,2
19.01.2021 23:00:00 -11,4 -12,6 8 4 14 8 N 1011,8 6 0,0
19.01.2021 22:00:00 -11,7 -12,9 8 4 14 8 N 1011,7 9 0,0
19.01.2021 21:00:00 -11,8 -13,0 5 3 14 8 N 1011,7 10 0,0
19.01.2021 20:00:00 -12,0 -13,2 9 5 14 8 N 1011,6 10 0,0
19.01.2021 19:00:00 -12,2 -13,4 5 3 14 8 N 1011,5 10 0,0
19.01.2021 18:00:00 -12,5 -13,7 8 4 14 8 N 1011,2 6 0,0
19.01.2021 17:00:00 -13,0 -14,2 9 5 18 10 N 1011,0 5 0,0
19.01.2021 16:00:00 -13,6 -14,9 9 5 18 10 N 1011,0 6 0,0
19.01.2021 15:00:00 -13,9 -15,3 11 6 18 10 N 1010,8 7 0,0
19.01.2021 14:00:00 -14,4 -15,8 11 6 18 10 N 1010,5 3,0 0,0
19.01.2021 13:00:00 -15,1 -16,6 8 4 18 10 N 1010,4 5 0,0
19.01.2021 12:00:00 -15,8 -17,3 0 0 4 2 N 1010,4 3,0 0,0
19.01.2021 11:00:00 -16,9 -18,5 0 0 0 0 N 1010,1 2,0 0,0
19.01.2021 10:00:00 -17,1 -18,7 0 0 0 0 N 1010,5 3,0 0,0
19.01.2021 09:00:00 -17,3 -18,9 0 0 4 2 N 1010,1 4,5 0,0
19.01.2021 08:00:00 -18,4 -20,2 2 1 4 2 NNW 1009,7 6 0,0
19.01.2021 07:00:00 -18,4 -20,2 2 1 4 2 NNW 1009,7 4,0 0,1
19.01.2021 06:00:00 -18,3 -20,1 2 1 4 2 NNW 1009,5 4,0 0,0
19.01.2021 05:00:00 -18,2 -20,0 0 0 0 0 N 1009,4 5 0,0
19.01.2021 04:00:00 -18,2 -20,0 2 1 14 8 NNW 1009,2 5 0,0
19.01.2021 03:00:00 -17,9 -19,7 0 0 11 6 N 1009,0 5 0,0
19.01.2021 02:00:00 -17,5 -19,1 5 3 14 8 NW 1009,1 5 0,0
19.01.2021 01:00:00 -17,4 -19,0 0 0 7 4 N 1008,9 2,7 0,0
19.01.2021 00:00:00 -16,7 -18,4 0 0 4 2 N 1009,0 3,1 0,0
18.01.2021 23:00:00 -16,8 -18,4 0 0 4 2 N 1009,1 4,9 0,0
18.01.2021 22:00:00 -16,1 -17,6 0 0 0 0 N 1009,0 2,5 0,0
18.01.2021 21:00:00 -15,8 -17,3 0 0 0 0 N 1008,7 4,1 0,0
18.01.2021 20:00:00 -15,7 -17,2 0 0 0 0 N 1008,6 2,5 0,0
18.01.2021 19:00:00 -16,2 -17,7 2 1 4 2 NNW 1008,5 5 0,0
18.01.2021 18:00:00 -16,7 -18,4 0 0 4 2 N 1008,4 10 0,0
18.01.2021 17:00:00 -17,3 -18,9 0 0 4 2 N 1008,4 10 0,0
18.01.2021 16:00:00 -17,6 -19,2 2 1 7 4 NNW 1008,6 7 0,0
18.01.2021 15:00:00 -17,4 -19,0 4 2 7 4 NW 1008,7 2,0 0,0
18.01.2021 14:00:00 -16,7 -18,4 0 0 4 2 N 1008,8 10 0,0
18.01.2021 13:00:00 -15,5 -17,0 0 0 4 2 N 1008,8 7 0,0
18.01.2021 12:00:00 -14,9 -16,3 4 2 7 4 NW 1009,0 2,0 0,0
18.01.2021 11:00:00 -14,2 -15,6 4 2 11 6 NW 1009,3 2,0 0,0
18.01.2021 10:00:00 -14,2 -15,6 9 5 14 8 NW 1009,3 1,5 0,0
18.01.2021 09:00:00 -14,0 -15,1 11 6 14 8 NW 1009,4 3,0 0,0
18.01.2021 08:00:00 -14,3 -15,7 8 4 14 8 N 1009,5 10 0,0
18.01.2021 07:00:00 -15,5 -17,0 9 5 14 8 NW 1009,4 10 0,0

tt = Température de l'air
td = dewpoint
ff = Vitesse du vent
fx = gusts
dd = Direction du vent
ppp = reduced air pressure
vv = visibility
rr = Quantités de précipitations

stations d'obs. à proximité